Regional Weather Roundup
Issued by NWS

Home | Current Version | Previous Version | Graphics & Text | Print | Product List | Glossary On
Versions: 1 2 3 4 5 6 7 8 9 10 11 12 13 14 15 16 17 18 19 20 21 22 23 24 25 26 27 28 29 30 31 32 33 34 35 36 37 38 39 40 41 42 43 44 45 46 47 48 49 50
863
ASUS45 KABQ 220501
RWRNM
NEW MEXICO REGIONAL WEATHER ROUNDUP
NATIONAL WEATHER SERVICE ALBUQUERQUE NM
1000 PM MST WED FEB 21 2018

NOTE: "FAIR" MEANS FEW OR NO CLOUDS BELOW 12,000 FEET AGL WITH NO
       SIGNIFICANT WEATHER OR OBSTRUCTIONS TO VISION.

      THIS PRODUCT IS RELEASED AS TWO VERSIONS.  ONE VERSION NEAR
      THE TOP OF THE HOUR CONTAINING PRELIMINARY DATA FROM ALBUQUERQUE
      AND OTHER STATIONS.  A FINAL VERSION WITH ADDITIONAL DATA IS
      ISSUED ABOUT 10 MINUTES AFTER THE HOUR.

NMZ501-503-504-510>518-220600-
NORTHWEST PLATEAU/NORTHCENTRAL MOUNTAINS

CITY           SKY/WX    TMP DP  RH WIND       PRES   REMARKS
FARMINGTON     CLOUDY    34  27  75 S9        29.99R WCI  27
LOS ALAMOS     LGT SNOW  25  25 100 S17G23    30.07S WCI  11
SANTA FE       CLOUDY    32  15  49 SE16      30.07R WCI  21
ANGEL FIRE     CLOUDY    21  12  68 S13       30.04R WCI   9

$$
NMZ402-403-502-505>509-220600-
WESTCENTRAL MOUNTAINS/SOUTHWEST MOUNTAINS

CITY           SKY/WX    TMP DP  RH WIND       PRES   REMARKS
GALLUP         LGT SNOW  31  28  89 SW10      30.02R FOG     WCI  22
GRANTS         FAIR      38  20  47 SW6       30.02S WCI  34
SILVER CITY    FAIR      42  25  51 W7        30.04R

$$
NMZ407-409-411-412-220600-
SOUTHERN DESERTS

CITY           SKY/WX    TMP DP  RH WIND       PRES   REMARKS
DEMING         FAIR      46  28  49 SW5       30.03R
LAS CRUCES     FAIR      46  24  42 SW5       30.05R
HOLLOMAN AFB   FAIR      44  25  46 S14       30.05S
ALAMOGORDO     FAIR      43  27  52 W5        30.04S
T OR C           N/A     48  24  39 S8        30.00S

$$
NMZ519>523-220600-
CENTRAL VALLEYS/CENTRAL HIGHLANDS

CITY           SKY/WX    TMP DP  RH WIND       PRES   REMARKS
ALBUQUERQUE    MOCLDY    40  21  46 E14       30.02S WCI  32
DOUBLE EAGLE   CLOUDY    39  30  70 S20G26    30.03R WCI  30
MORIARTY ARPT  FAIR      29  14  53 CALM      30.10F
CLINES CORNERS FAIR      22   9  57 E10       30.09S WCI  11
BELEN          FAIR      42  24  48 SE12      30.01S
SOCORRO        FAIR      44  27  50 S7        30.00F

$$
NMZ524>526-539-540-220600-
SOUTHCENTRAL MOUNTAINS

CITY           SKY/WX    TMP DP  RH WIND       PRES   REMARKS
RUIDOSO        NOT AVBL

$$
NMZ527>531-220600-
NORTHEAST HIGHLANDS/NORTHEAST PLAINS

CITY           SKY/WX    TMP DP  RH WIND       PRES   REMARKS
LAS VEGAS      FAIR      20   5  52 S9        30.09F WCI   9
RATON          MOCLDY    16   3  56 W9        30.11S WCI   4
CLAYTON        FAIR      14  11  87 S8        30.17S WCI   3

$$
NMZ532>537-220600-
EASTCENTRAL PLAINS

CITY           SKY/WX    TMP DP  RH WIND       PRES   REMARKS
SANTA ROSA     FAIR      25   8  48 CALM      30.17S
TUCUMCARI      FAIR      25   7  46 E5        30.18F WCI  19
CANNON AFB     FAIR      21  11  63 NE6       30.19F WCI  14
CLOVIS AIRPORT NOT AVBL

$$
NMZ028-029-538-220600-
SOUTHEAST PLAINS

CITY           SKY/WX    TMP DP  RH WIND       PRES   REMARKS
ROSWELL        FAIR      33  17  51 SE7       30.18R WCI  27
ARTESIA        FAIR      34  18  51 S9        30.19S WCI  26
CARLSBAD       FAIR      33  23  66 SE9       30.20R WCI  25
HOBBS          FAIR      27  21  80 SE8       30.21R WCI  18


$$




USA.gov is the U.S. government's official web portal to all federal, state and local government web resources and services.